Location: Waco, TX
(31.5480°N, 97.1670°W)
Time: 02:04:10
(UTC-06:00)

ISS - Pass Details

Date: 24 January 2021
Orbit: 417 x 422 km, 51.6° (Epoch: 09 March)

Event Time Altitude Azimuth Distance (km) Brightness Sun altitude
Rises 22:48:03 0° 332° (NNW) 2,372 - -61.6°
Reaches altitude 10° 22:50:57 10° 360° (N) 1,505 - -62.2°
Maximum altitude 22:52:49 14° 33° (NNE) 1,287 - -62.6°
Drops below altitude 10° 22:54:39 10° 66° (ENE) 1,502 - -62.9°
Sets 22:57:33 0° 94° (E) 2,362 - -63.5°
